New Century, KS

4:36 PM CST on February 26, 2017 (GMT -0600)
New Century Aircenter

Weather History for KIXD - April, 2014

Change the Weather History Date:

Wednesday, April 2, 2014

  Actual Average Record
Temperature  
Mean Temperature 49 °F -  
Max Temperature 55 °F 59 °F 84 °F (2012)
Min Temperature 44 °F 38 °F 28 °F (2013)
Degree Days  
Heating Degree Days 16    
Moisture  
Dew Point 44 °F    
Average Humidity 85    
Maximum Humidity 96    
Minimum Humidity 46    
Precipitation  
Precipitation 0.29 in - - ()
Sea Level Pressure  
Sea Level Pressure 29.83 in    
Wind  
Wind Speed 12 mph (ENE)    
Max Wind Speed 22 mph    
Max Gust Speed 31 mph    
Visibility 6 miles    
Events Rain , Thunderstorm    
Averages and records for this station are not official NWS values.
T = Trace of Precipitation, MM = Missing Value Source: NWS Daily Summary

Daily Weather History Graph

Daily Weather History Graph

Search for Another Location

Airport or City:

Trip Planner

Search our weather history database for the weather conditions in past years. The results will help you decide how hot, cold, wet, or windy it might be!

Date:

Astronomy

Apr. 02, 2014 Rise Set
Actual Time 7:02 AM CDT 7:44 PM CDT
Civil Twilight 6:35 AM CDT 8:11 PM CDT
Nautical Twilight 6:04 AM CDT 8:42 PM CDT
Astronomical Twilight 5:31 AM CDT 9:15 PM CDT
Moon 8:49 AM CDT (4/2) 11:06 PM CDT (4/2)
Length of Visible Light 13h 35m
Length of Day
12h 41m
Waxing Crescent, 10% of the Moon is Illuminated
Apr 2
Waxing Crescent
Apr 7
First Quarter
Apr 15
Full
Apr 22
Last Quarter
Apr 29
New

Hourly Weather History & Observations

Time (CDT) Temp. Windchill Dew Point Humidity Pressure Visibility Wind Dir Wind Speed Gust Speed Precip Events Conditions
12:02 AM 48.9 °F - 30.0 °F 48% 29.97 in 10.0 mi ENE 11.5 mph - N/A   Overcast
12:53 AM 48.9 °F - 28.9 °F 46% 29.99 in 10.0 mi ENE 10.4 mph - N/A   Overcast
1:53 AM 48.9 °F - 30.0 °F 48% 29.97 in 10.0 mi East 11.5 mph 20.7 mph N/A   Overcast
2:53 AM 48.0 °F - 33.1 °F 56% 29.95 in 10.0 mi East 13.8 mph 19.6 mph N/A   Overcast
3:53 AM 46.9 °F - 35.1 °F 63% 29.91 in 10.0 mi East 15.0 mph 24.2 mph N/A   Overcast
4:00 AM 46.9 °F - 35.1 °F 63% 29.91 in 10.0 mi East 12.7 mph 24.2 mph N/A Thunderstorm Overcast
4:26 AM 46.0 °F 39.6 °F 37.9 °F 73% 29.90 in 10.0 mi ENE 15.0 mph - 0.01 in Rain , Thunderstorm Light Thunderstorms and Rain
4:53 AM 46.0 °F 38.3 °F 39.0 °F 76% 29.86 in 10.0 mi East 20.7 mph 26.5 mph 0.01 in Thunderstorm Thunderstorm
5:01 AM 46.0 °F 38.0 °F 39.0 °F 76% 29.96 in 10.0 mi WNW 21.9 mph 27.6 mph N/A Thunderstorm Thunderstorm
5:14 AM 45.0 °F 38.5 °F 39.0 °F 80% 29.90 in 8.0 mi East 13.8 mph 24.2 mph 0.02 in Rain , Thunderstorm Light Rain
5:18 AM 45.0 °F 37.6 °F 39.9 °F 82% 29.86 in 7.0 mi East 17.3 mph 23.0 mph 0.04 in Rain , Thunderstorm Thunderstorms and Rain
5:49 AM 44.6 °F 37.4 °F 41.0 °F 87% 29.87 in 7.0 mi East 16.1 mph 21.9 mph 0.10 in Rain , Thunderstorm Rain
5:53 AM 45.0 °F 37.9 °F 41.0 °F 86% 29.86 in 6.0 mi East 16.1 mph 24.2 mph 0.12 in Rain , Thunderstorm Rain
6:10 AM 44.1 °F 37.1 °F 41.0 °F 89% 29.86 in 6.0 mi ENE 15.0 mph 31.1 mph 0.02 in Rain , Thunderstorm Light Rain
6:19 AM 44.1 °F 37.7 °F 42.1 °F 93% 29.87 in 4.0 mi East 12.7 mph 23.0 mph 0.04 in Rain , Thunderstorm Rain
7:37 AM 45.0 °F 40.1 °F - N/A% 29.87 in - ENE 9.2 mph - N/A Rain , Thunderstorm Light Thunderstorms and Rain
7:53 AM 45.0 °F 40.1 °F 43.0 °F 93% 29.92 in 6.0 mi NNE 9.2 mph - N/A Rain , Thunderstorm Light Rain
8:00 AM 45.0 °F 40.1 °F 43.0 °F 93% 29.88 in 5.0 mi ENE 9.2 mph - 0.01 in Rain Light Rain
8:53 AM 45.0 °F 38.9 °F 42.1 °F 90% 29.87 in 2.5 mi East 12.7 mph - 0.08 in Rain Light Rain
9:02 AM 45.0 °F 39.7 °F 42.1 °F 90% 29.87 in 4.0 mi ENE 10.4 mph - 0.00 in Rain Light Rain
9:53 AM 45.0 °F 39.3 °F 43.0 °F 93% 29.87 in 4.0 mi East 11.5 mph - 0.01 in Rain Light Rain
10:53 AM 46.0 °F 40.2 °F 44.1 °F 93% 29.86 in 4.0 mi East 12.7 mph - 0.00 in   Overcast
11:09 AM 46.0 °F 41.0 °F 44.1 °F 93% 29.86 in 3.0 mi East 10.4 mph - N/A   Overcast
11:16 AM 46.0 °F 40.6 °F 44.1 °F 93% 29.86 in 2.5 mi East 11.5 mph - N/A   Overcast
11:53 AM 46.9 °F - 45.0 °F 93% 29.86 in 1.5 mi East 9.2 mph - 0.00 in Rain Light Rain
12:13 PM 48.0 °F - 46.0 °F 93% 29.84 in 2.0 mi East 12.7 mph - 0.00 in   Overcast
12:42 PM 48.9 °F - 46.9 °F 93% 29.83 in 4.0 mi East 9.2 mph - 0.00 in   Overcast
12:53 PM 48.9 °F - 46.9 °F 93% 29.83 in 2.5 mi East 11.5 mph - 0.00 in   Overcast
1:09 PM 50.0 °F - 48.0 °F 93% 29.82 in 4.0 mi East 10.4 mph 19.6 mph N/A   Overcast
1:53 PM 51.1 °F - 48.9 °F 92% 29.80 in 8.0 mi East 11.5 mph - N/A   Overcast
2:05 PM 52.0 °F - 50.0 °F 93% 29.80 in 7.0 mi East 11.5 mph - N/A   Overcast
2:53 PM 53.1 °F - 51.1 °F 93% 29.78 in 6.0 mi East 11.5 mph 19.6 mph N/A   Overcast
3:53 PM 53.1 °F - 51.1 °F 93% 29.75 in 6.0 mi ESE 11.5 mph - N/A   Overcast
5:30 PM 54.0 °F - 52.0 °F 93% 29.73 in 4.0 mi East 9.2 mph - N/A   Overcast
5:53 PM 54.0 °F - 52.0 °F 93% 29.72 in 5.0 mi East 10.4 mph - N/A   Overcast
6:53 PM 54.0 °F - 52.0 °F 93% 29.73 in 6.0 mi ENE 11.5 mph - N/A   Overcast
7:53 PM 54.0 °F - 52.0 °F 93% 29.73 in 6.0 mi East 9.2 mph - N/A   Overcast
8:48 PM 53.6 °F - 51.8 °F 94% 29.72 in 5.0 mi ENE 8.1 mph - N/A Thunderstorm Overcast
8:53 PM 54.0 °F - 52.0 °F 93% 29.72 in 5.0 mi ENE 6.9 mph - N/A Thunderstorm Overcast
9:25 PM 54.0 °F - 52.0 °F 93% 29.70 in 4.0 mi ENE 11.5 mph - 0.00 in Rain , Thunderstorm Light Rain
9:48 PM 53.6 °F - 51.8 °F 94% 29.70 in 3.0 mi ENE 10.4 mph - 0.06 in Rain , Thunderstorm Rain
9:53 PM 54.0 °F - 52.0 °F 93% 29.70 in 3.0 mi North 10.4 mph - 0.06 in Rain , Thunderstorm Light Rain
10:53 PM 53.1 °F - 52.0 °F 96% 29.72 in 3.0 mi ENE 6.9 mph - 0.00 in Rain , Thunderstorm Light Rain
11:53 PM 53.1 °F - 51.1 °F 93% 29.67 in 3.0 mi NE 10.4 mph - 0.01 in Thunderstorm Overcast